STARLINK-32639, 62153

Orbit data source: Space-Track

STARLINK-32639, 62153 is a payload satellite owned by SpaceX/Seattle (US) in LEO that was launched on Sat, 30 Nov 2024 UTC via an FALCON 9 launch vehicle from the Air Force Eastern Test Range (AFETR). Payload-class satellites include a variety of spacecraft equipped with specific instruments for various scientific and technological missions. These include communications satellites like Starlink; space stations such as the ISS; scientific satellites like the Hubble; Earth observation satellites from companies like Planet Labs, Umbra, and HawkEye 360; GPS; miniature CubeSats for education and research; and military/defense satellites.

Loading next visibility...
Identifier
62153, 2024-224Q
Orbit
LEO
Country
Flag of USUS
Related business
Manufacturer
SpaceX/Seattle
Mission
Operational Commercial Communications
Bus & Motor
STARLINK V2M, Unknown motor
Mass
730 kg wet, ~700 kg dry
Launch date (UTC)
2024-11-30 (1 year ago)
Launch vehicle
FALCON 9
Launch site
Air Force Eastern Test Range (AFETR)
Object type
Payload
Rocket body
Debris
Shape & HBR
Box + 2 Pan, 17.7 m
Radar Cross Section
33.884 m², Large (>1 m²)

Expand to show TLE details & history
Last TLE update: 17 hours ago

TLE from 17 hours ago
0 STARLINK-32639
1 62153U 24224Q   25346.56830430  .00031911  00000-0  11651-2 0  9991
2 62153  43.0007 290.3195 0001456 264.4769  95.5916 15.27553728 58997
Epoch: 2025-12-12T13:38Z
TLE epoch observation values (Epoch: 2025-12-12T13:38:21.491Z)
Latitude
-0.00006°
Longitude
4.22183°
Altitude
483.001 km
Speed
7.626 km/s
True Right ascension
19h 21m 16s
True Declination
0° 00' 00"
Sunlit
Object was in daylight at epoch
Visualization orbit readout
Latitude
Unknown
Longitude
Unknown
Altitude
Unknown
Speed
Unknown
Apparent Right ascension
Unknown
Apparent Declination
Unknown
Sunlit
N/A
Visualization observer readout
Local Sidereal Time
05:23:38
Azimuth
Unknown
Elevation
Unknown
Doppler factor
Unknown
Orbital elements
Apogee altitude
486.072 km
Perigee altitude
484.074 km
Semi-major axis
6,863.21 km
Eccentricity
0.00015
Inclination
43.0007°
RAAN
290.3195°
Arg. of periapsis
264.4769°
True anomaly
95.6082°
Mean anomaly
95.5916°
Eccentric anomaly
95.5999°
Mean motion
3.81726 °/min
Orbital period
94.31 mins
BSTAR
0.0011651
Loading maneuver chart data...
Computing Atmospheric mass density...
Loading historical data...
Loading historical data...
Loading historical data...
Loading historical data...
Loading historical data...
Loading historical data...
Loading historical data...

Documentation

Showing up to 5 results
|